This demonstration page uses our WeatherBlox Daily Observations layout. Learn more.

Left ArrowRight Arrow

44.8408, -93.29828

Hourly Observations for April 3, 2022

Temp ( °F °C ) Dew Point ( °F °C ) Humidity (%) Winds ( mph kmh ) Pressure ( in mb ) Visibility ( mi km ) Precip ( " mm )
12:53 am 00:53 Cloudy 37 2.8 22 -5.6 54 54 N 6 9 30.08 1019 10 16 0.00 0.00
1:53 am 01:53 Cloudy 36 2.2 23 -5 59 59 NNE 7 11 30.07 1018 10 16 0.00 0.00
2:53 am 02:53 Partly Cloudy 35 1.7 23 -5 61 61 NE 5 7 30.06 1018 10 16 0.00 0.00
3:53 am 03:53 Mostly Clear 32 0 22 -5.6 66 66 N 3 6 30.07 1018 10 16 0.00 0.00
4:53 am 04:53 Mostly Clear 30 -1.1 23 -5 75 75 Calm 30.06 1018 10 16 0.00 0.00
5:53 am 05:53 Mostly Clear 31 -0.6 22 -5.6 69 69 Calm 30.07 1018 10 16 0.00 0.00
6:53 am 06:53 Mostly Sunny 31 -0.6 23 -5 72 72 Calm 30.09 1019 10 16 0.00 0.00
7:53 am 07:53 Mostly Sunny 31 -0.6 25 -3.9 79 79 E 3 6 30.09 1019 10 16 0.00 0.00
8:53 am 08:53 Mostly Sunny 36 2.2 25 -3.9 64 64 E 6 9 30.09 1019 10 16 0.00 0.00
9:53 am 09:53 Partly Cloudy 38 3.3 24 -4.4 57 57 E 3 6 30.07 1018 10 16 0.00 0.00
10:53 am 10:53 Partly Cloudy 40 4.4 23 -5 51 51 ESE 10 17 30.04 1017 10 16 0.00 0.00
11:53 am 11:53 Cloudy 41 5 24 -4.4 51 51 ESE 8 13 30.04 1017 10 16 0.00 0.00
12:53 pm 12:53 Cloudy 41 5 24 -4.4 51 51 S 8 13 30.03 1017 10 16 0.00 0.00
1:53 pm 13:53 Cloudy 41 5 25 -3.9 53 53 ESE 7 11 30.02 1017 10 16 0.00 0.00
2:02 pm 14:02 Cloudy with Light Rain/Snow 39 3.9 27 -2.8 62 62 S 9 15 30.03 1017 8 13 0.00 0.00
2:09 pm 14:09 Cloudy with Light Rain/Snow 39 3.9 28 -2.2 65 65 ESE 8 13 30.03 1017 9 14 0.00 0.00
2:53 pm 14:53 Cloudy with Light Snow 36 2.2 32 0 86 86 E 12 19 29.96 1015 9 14 0.01 0.25
3:09 pm 15:09 Cloudy with Light Snow 36 2.2 32 0 86 86 E 12 19 29.97 1015 9 14 0.00 0.00
3:18 pm 15:18 Cloudy 37 2.8 32 0 82 82 E 12 19 29.96 1014 9 14 0.00 0.00
3:53 pm 15:53 Cloudy 37 2.8 33 0.6 86 86 ESE 14 22 29.93 1014 10 16 0.00 0.00
4:53 pm 16:53 Cloudy 38 3.3 32 0 79 79 ESE 12 19 29.91 1013 10 16 0.00 0.00
5:53 pm 17:53 Cloudy 38 3.3 31 -0.6 76 76 ESE 10 17 29.90 1013 10 16 0.00 0.00
6:53 pm 18:53 Cloudy with Light Rain 38 3.3 31 -0.6 76 76 E 14 22 29.86 1011 10 16 0.00 0.00
7:42 pm 19:42 Cloudy 38 3.3 31 -0.6 76 76 E 8 13 29.86 1011 10 16 0.00 0.00
7:53 pm 19:53 Cloudy with Light Rain 38 3.3 31 -0.6 76 76 E 8 13 29.85 1011 10 16 0.00 0.00
8:53 pm 20:53 Cloudy with Light Rain 38 3.3 32 0 79 79 E 10 17 29.82 1010 10 16 0.01 0.25
9:53 pm 21:53 Cloudy with Rain 37 2.8 32 0 82 82 ENE 9 15 29.80 1009 7 11 0.02 0.51
10:10 pm 22:10 Cloudy with Light Snow 35 1.7 32 0 89 89 ENE 9 15 29.82 1010 5 8 0.04 1.02
10:23 pm 22:23 Cloudy with Light Snow 35 1.7 31 -0.6 85 85 NE 9 15 29.82 1010 4 6 0.06 1.52
10:34 pm 22:34 Cloudy with Light Snow 34 1.1 31 -0.6 89 89 NNE 10 17 29.82 1010 4 6 0.08 2.03
10:46 pm 22:46 Cloudy with Light Snow 33 0.6 30 -1.1 89 89 N 10 17 29.82 1010 3 5 0.10 2.54
10:51 pm 22:51 Cloudy with Light Snow 34 1 30 -1 87 87 N 10 17 29.82 1010 2 3 0.11 2.79
10:53 pm 22:53 Cloudy with Light Snow 33 0.6 31 -0.6 92 92 N 12 19 29.80 1009 2 2 0.11 2.79
11:12 pm 23:12 Cloudy with Light Snow 33 0.6 30 -1.1 89 89 N 13 20 29.83 1010 1 2 0.04 1.02
11:53 pm 23:53 Cloudy with Light Snow 33 0.6 31 -0.6 92 92 N 13 20 29.80 1009 1 2 0.14 3.56

Powered by AerisWeather